This is the latest recevied weather packets stored in our database for station/object KQ4WWD. If no packets are shown the sender has not sent any weather packets the latest 10 day(s).
| Time | Temp. | Humidity | Pressure | Rain* | Wind** | Luminosity | Snow |
|---|---|---|---|---|---|---|---|
| 1777292463 | 21.67° C | 93% | 1015.7 hPa | 0 mm | - | 98 W/m² | - |
| 1777292160 | 21.67° C | 93% | 1015.3 hPa | 0 mm | - | 100 W/m² | - |
| 1777291856 | 21.11° C | 93% | 1015.2 hPa | 0 mm | - | 97 W/m² | - |
| 1777291553 | 21.11° C | 94% | 1015.4 hPa | 0 mm | - | 72 W/m² | - |
| 1777291250 | 21.11° C | 94% | 1015.1 hPa | 0 mm | - | 67 W/m² | - |
| 1777290946 | 21.11° C | 95% | 1015.2 hPa | 0 mm | - | 62 W/m² | - |
| 1777290644 | 20.56° C | 95% | 1014.9 hPa | 0 mm | - | 45 W/m² | - |
| 1777290339 | 20.56° C | 95% | 1015.1 hPa | 0 mm | - | 44 W/m² | - |
| 1777290035 | 20.56° C | 95% | 1015 hPa | 0 mm | - | 41 W/m² | - |
| 1777289732 | 20.56° C | 95% | 1014.8 hPa | 0 mm | - | 39 W/m² | - |
| 1777289428 | 20.56° C | 95% | 1014.5 hPa | 0 mm | - | 34 W/m² | - |
| 1777289125 | 20.56° C | 96% | 1014.8 hPa | 0 mm | - | 28 W/m² | - |
| 1777288821 | 20.56° C | 96% | 1014.8 hPa | 0 mm | - | 22 W/m² | - |
| 1777288518 | 20.56° C | 96% | 1014.5 hPa | 0 mm | - | 17 W/m² | - |
| 1777288215 | 20.56° C | 96% | 1014.5 hPa | 0 mm | - | 12 W/m² | - |
| 1777287911 | 20.56° C | 96% | 1014.3 hPa | 0 mm | - | 9 W/m² | - |
| 1777287608 | 20.56° C | 96% | 1014.4 hPa | 0 mm | - | 5 W/m² | - |
| 1777287303 | 20.56° C | 96% | 1014 hPa | 0 mm | - | 3 W/m² | - |
| 1777287000 | 20.56° C | 96% | 1013.9 hPa | 0 mm | - | 1 W/m² | - |
| 1777286697 | 20.56° C | 96% | 1014 hPa | 0 mm | - | 0 W/m² | - |
| 1777286395 | 20° C | 96% | 1014 hPa | 0 mm | - | 0 W/m² | - |
| 1777286091 | 20° C | 96% | 1013.9 hPa | 0 mm | - | 0 W/m² | - |
| 1777285789 | 20° C | 96% | 1013.7 hPa | 0 mm | - | 0 W/m² | - |
| 1777285487 | 20° C | 95% | 1013.7 hPa | 0 mm | - | 0 W/m² | - |
| 1777285183 | 19.44° C | 95% | 1013.5 hPa | 0 mm | - | 0 W/m² | - |
* Rain latest hour (hover to see other rain measurements)
** Current wind speed in m/s (hover to see current wind gust speed)